Theta_e
312 311 311 311 310 311 307 298 291 303 301 288 288 286 292 297 294 295 292 292 290 287 287 284 284 284 287 292 290 285 285 281 276 280 286 287 283 280 280 274 271 275 273 274
309 309 309 309 309 309 300 294 293 301 298 282 283 290 292 292 292 292 291 289 291 290 286 282 286 287 293 292 290 286 286 278 271 275 277 281 278 281 282 278 273 273 271 274
308 308 308 308 309 310 301 293 285 291 291 288 285 284 286 287 292 292 291 290 290 287 284 286 283 284 290 291 290 295 290 281 276 273 275 276 277 280 281 277 273 272 275 277
308 308 308 308 308 310 300 292 288 288 282 285 288 284 286 283 283 289 290 286 286 283 275 280 280 284 285 288 291 288 286 278 278 280 281 281 280 280 280 276 277 275 278 277
308 308 307 307 308 308 296 288 286 286 287 289 285 282 280 283 285 284 283 283 285 283 279 282 280 282 280 282 285 282 284 277 279 277 280 280 278 280 281 280 279 278 279 279
307 307 306 306 307 301 291 292 293 287 286 285 279 278 282 285 285 286 287 285 282 281 283 285 286 285 284 285 284 282 279 278 277 273 277 278 273 277 278 277 279 278 272 277
306 306 306 305 306 302 292 290 289 282 274 278 280 285 285 284 284 283 286 284 280 285 291 289 286 284 285 285 285 286 278 275 279 274 274 266 276 281 282 279 279 279 279 280
306 306 305 305 305 305 294 293 289 282 273 281 282 284 283 283 283 283 284 288 288 289 284 275 274 275 275 280 282 281 283 279 276 273 270 274 278 281 278 276 276 283 282 283
305 305 305 304 304 304 295 292 292 287 278 275 286 283 283 277 277 279 283 286 288 286 277 272 263 267 272 273 276 281 281 279 275 274 270 269 275 281 285 283 274 284 285 283
305 304 304 303 303 303 295 292 294 288 279 283 284 278 279 283 278 273 279 281 281 282 268 274 269 269 275 271 272 273 271 272 274 275 274 274 281 284 286 272 274 284 284 283
304 304 302 303 302 303 295 292 294 288 277 283 288 288 283 283 279 273 279 277 276 274 273 272 273 272 275 272 275 273 275 272 268 274 272 270 284 284 277 279 284 284 283 284
302 303 303 302 302 302 296 289 294 293 285 284 289 290 291 289 288 282 279 278 278 278 271 272 273 272 272 272 266 276 271 279 276 276 276 283 286 285 287 286 284 284 284 286
302 302 301 301 301 301 297 289 290 288 281 281 282 283 287 289 289 290 277 277 283 281 281 274 272 269 272 269 270 272 276 283 279 279 282 284 285 288 288 288 285 286 286 286
301 301 301 301 300 300 298 289 290 288 283 275 279 288 285 287 287 287 287 286 285 283 276 270 270 270 276 271 274 273 276 278 277 278 282 284 286 286 285 286 286 285 286 285
300 300 299 299 298 299 292 290 291 290 284 275 277 284 286 287 286 286 286 284 280 273 274 271 272 276 275 275 274 275 278 277 275 275 281 282 284 286 287 285 285 285 284 285
299 299 299 299 299 297 288 279 289 293 288 274 268 281 283 285 286 285 285 285 280 275 276 274 277 279 280 276 271 278 280 282 284 281 286 286 287 289 286 285 285 286 286 287
299 299 299 299 298 288 284 281 288 294 288 276 271 271 280 284 283 283 282 281 277 278 277 278 276 277 282 277 274 280 282 284 284 286 286 284 285 284 286 286 288 288 286 286
298 298 298 298 298 293 286 290 297 291 284 284 275 267 274 282 276 276 281 275 273 275 275 276 277 277 278 274 278 281 283 284 283 284 287 285 285 283 284 285 286 284 284 284
298 298 298 291 286 280 287 297 296 289 280 266 276 270 267 279 275 275 277 275 269 276 275 276 278 274 275 278 280 282 284 283 284 285 284 284 283 282 283 283 284 283 284 283
297 290 284 276 283 296 293 284 279 278 283 279 276 276 271 277 273 270 269 268 275 273 274 281 276 275 283 285 284 284 284 285 286 282 281 282 282 281 281 283 284 284 283 285
286 279 278 285 292 283 276 267 267 267 268 271 277 276 273 279 273 271 272 267 264 262 272 275 276 275 282 285 283 285 284 285 285 284 284 285 285 283 282 283 284 285 285 286
287 286 286 282 274 268 265 259 264 266 269 273 275 277 277 276 275 272 272 269 267 266 277 276 272 280 284 284 284 284 284 285 285 286 285 286 285 284 283 283 284 285 286 286
285 278 271 270 266 263 261 258 263 265 274 276 277 274 273 276 274 268 273 268 269 278 271 273 278 282 283 282 284 284 285 286 287 284 286 286 285 285 284 284 284 284 286 286
275 267 265 264 259 264 264 267 269 275 276 275 275 274 273 273 271 266 267 271 274 273 273 274 276 279 281 282 283 282 283 285 286 285 286 286 286 285 285 285 284 285 285 287
271 269 264 265 272 269 272 271 270 276 277 276 272 271 271 266 266 268 269 268 272 275 274 275 278 280 280 280 282 282 282 284 285 286 286 285 284 284 284 284 284 286 287 287
272 272 271 275 273 269 270 274 270 275 275 276 274 265 268 265 267 267 272 272 272 275 278 279 279 282 281 280 281 283 283 284 285 286 286 285 284 285 285 285 286 286 287 287
269 269 277 275 274 273 271 275 276 278 275 270 268 265 266 270 269 269 277 276 277 279 279 279 281 285 283 282 281 283 285 286 286 286 287 286 286 286 286 285 285 286 287 287
Wind_Speed
13 14 16 18 20 20 9 2 3 5 5 6 2 2 4 5 4 5 5 4 4 3 4 3 2 3 2 5 3 4 2 2 5 6 9 6 4 0 3 1 8 5 5 15
12 14 16 17 16 13 1 3 1 4 5 4 3 5 5 5 7 5 5 4 4 3 3 4 2 4 3 8 5 4 3 2 5 10 6 5 1 2 4 3 1 13 8 9
13 14 16 17 16 13 3 3 3 6 6 2 3 4 4 3 7 3 3 3 5 5 4 2 5 5 5 12 7 14 2 2 7 8 12 2 14 12 13 7 5 9 13 18
12 14 16 18 19 13 4 4 1 2 3 5 5 3 3 3 5 4 4 4 6 3 2 5 4 3 5 4 9 3 3 5 5 10 12 12 16 18 23 12 16 9 21 13
13 14 16 18 20 8 6 4 4 4 3 1 2 2 3 1 3 1 3 1 2 3 4 7 13 6 3 7 4 3 3 8 4 22 16 14 19 18 19 18 15 9 15 17
12 12 15 17 19 8 4 2 2 5 3 2 3 3 3 2 0 4 5 3 3 6 7 4 7 7 8 11 11 13 5 4 8 20 8 7 8 11 9 5 6 5 5 8
11 11 14 16 17 8 4 0 3 5 3 3 4 1 2 6 5 4 5 2 1 2 6 6 5 7 12 12 16 12 6 5 6 9 2 5 7 8 10 10 6 6 6 7
10 11 13 15 16 12 5 1 4 3 1 1 3 3 2 4 5 3 3 3 1 4 5 5 6 5 7 6 6 4 12 4 4 4 3 7 8 7 2 3 4 3 1 3
10 10 12 13 15 12 4 2 2 4 6 4 1 1 2 0 3 6 2 3 3 4 3 4 3 3 4 5 9 8 3 3 4 2 3 6 3 1 2 2 3 3 1 3
10 10 11 11 13 13 5 2 3 5 4 3 2 3 3 1 1 2 4 5 5 4 2 1 3 5 3 3 4 6 4 4 8 9 7 7 7 8 2 1 6 3 3 0
12 10 9 11 12 12 5 0 3 5 3 4 2 1 2 3 2 3 3 6 5 4 1 2 3 3 3 3 2 9 5 4 3 3 3 5 4 1 3 5 5 3 1 3
12 11 10 11 11 12 5 3 3 2 4 5 2 5 7 7 10 5 2 5 4 4 3 2 1 3 3 6 5 5 4 3 3 4 6 7 11 8 11 6 8 5 3 4
12 10 9 9 9 11 7 3 2 4 3 5 4 2 3 1 5 6 5 3 5 3 6 4 4 3 3 3 6 5 5 2 4 6 5 8 18 19 17 14 9 6 4 4
10 9 9 9 9 9 6 2 0 4 3 2 7 3 7 1 3 6 6 8 1 1 4 4 4 4 5 5 6 5 7 3 8 12 15 14 12 6 10 12 3 3 2 1
11 9 8 7 8 9 5 2 2 2 6 3 5 9 5 2 5 7 5 6 4 3 2 2 5 4 2 4 2 12 6 13 6 9 8 7 10 9 7 4 1 2 1 1
9 7 6 7 8 7 4 5 4 3 4 4 3 5 7 5 4 5 5 4 4 4 5 4 4 4 4 5 6 11 11 15 18 16 13 10 16 11 7 2 2 1 2 1
7 5 4 5 4 3 3 5 4 2 3 3 4 6 5 6 4 4 3 2 2 4 3 4 4 3 5 3 12 25 11 11 7 9 10 14 12 7 6 4 3 2 3 3
3 3 5 5 7 6 4 4 7 5 4 1 2 6 5 3 3 3 1 2 3 2 3 2 3 1 3 6 8 9 11 12 14 17 14 12 9 3 3 3 1 3 4 4
2 5 7 5 5 3 1 4 4 3 5 3 1 2 5 3 2 3 4 2 2 2 3 3 3 2 5 7 11 13 14 8 9 6 7 7 6 5 4 4 5 4 5 4
5 5 4 3 2 6 3 5 4 3 2 2 3 1 4 3 1 4 3 2 2 3 5 2 3 4 4 12 11 13 15 14 7 5 7 5 6 4 5 7 4 4 4 1
3 3 1 3 5 5 4 3 4 3 5 2 4 5 3 2 2 4 2 3 2 2 5 1 2 2 7 12 13 13 13 6 7 7 8 6 6 6 6 5 7 4 2 2
4 4 3 3 5 5 6 2 4 2 4 3 3 4 5 5 2 3 3 2 3 6 2 2 3 3 9 12 14 14 13 8 7 7 6 5 6 7 6 6 4 2 4 4
4 6 5 5 4 7 6 3 5 2 2 3 2 4 2 4 4 1 1 2 6 2 1 3 2 6 10 10 10 12 10 9 7 3 5 4 2 4 5 5 1 4 5 2
4 4 2 5 3 4 6 5 4 5 3 4 2 3 2 1 3 1 1 5 3 3 3 2 3 6 10 10 9 7 9 8 8 4 7 6 7 6 6 5 3 5 5 2
3 5 4 4 5 2 3 3 1 4 3 1 2 3 2 3 2 2 2 6 3 3 3 4 4 7 7 9 9 8 7 6 5 2 4 4 5 6 5 4 5 6 5 5
3 1 1 3 2 3 1 3 4 3 2 2 3 1 3 4 3 1 5 2 1 3 4 3 4 7 9 9 9 7 5 5 4 4 3 3 4 6 5 5 6 5 6 6
1 3 3 2 1 4 4 4 4 3 3 1 3 1 8 1 2 3 3 2 4 4 5 2 1 3 8 7 7 7 7 6 6 5 5 5 5 6 6 7 4 5 5 4
Wind_Direction
30 16 15 13 4 351 40 59 42 306 358 53 18 65 359 28 3 13 27 86 55 59 25 325 302 269 340 344 12 358 340 267 288 260 262 273 216 170 89 170 292 263 260 278
34 21 17 12 5 19 15 68 304 329 51 87 12 331 45 48 14 23 19 62 28 33 353 322 288 339 64 21 3 22 334 300 335 320 352 359 342 220 247 212 132 264 263 277
39 24 16 8 359 358 87 75 33 344 40 40 75 26 20 7 349 56 29 0 26 25 343 278 297 316 322 346 331 295 76 239 188 246 260 240 294 281 282 200 245 275 253 277
47 32 17 7 358 351 90 36 52 165 2 23 50 34 13 345 350 4 2 3 67 76 295 320 244 325 307 320 305 36 113 243 240 255 266 275 266 276 282 262 251 239 279 266
52 34 24 15 4 13 74 106 110 16 103 107 42 9 214 245 297 264 296 280 308 269 206 222 286 270 270 238 276 187 214 267 287 288 286 273 276 268 263 266 270 244 262 277
61 42 31 24 14 42 87 323 35 100 174 148 84 241 217 186 37 272 194 247 295 288 281 272 259 239 236 245 244 257 207 240 274 274 292 301 280 244 245 260 237 215 262 259
72 52 42 32 27 58 109 18 96 86 254 124 193 274 298 305 299 240 290 354 166 278 325 309 299 275 268 262 255 237 226 175 239 274 327 253 241 275 250 243 263 280 289 293
89 67 50 40 33 44 80 33 97 115 173 198 333 25 29 342 325 353 305 21 304 331 37 15 338 318 345 291 245 211 206 167 260 252 200 295 294 298 283 192 291 315 117 350
100 79 63 49 41 41 76 43 95 95 113 269 347 25 8 77 331 342 325 347 12 58 77 67 188 260 269 295 325 27 42 181 171 180 247 251 250 316 351 75 284 260 202 15
99 83 69 56 47 47 95 33 69 85 100 265 86 141 175 203 97 223 303 328 329 58 73 265 237 256 256 288 297 331 318 309 228 244 253 286 265 301 344 82 242 301 329 126
106 92 76 62 49 39 85 116 17 109 123 274 214 48 96 22 100 143 282 16 343 25 16 181 275 286 350 298 289 304 282 325 293 278 243 264 300 301 338 259 296 286 357 215
103 95 81 73 60 48 86 60 334 92 119 232 258 244 223 192 215 158 217 194 193 206 77 283 271 310 298 264 272 302 284 208 291 194 257 296 315 282 278 265 256 248 212 227
109 100 88 74 61 56 89 128 319 51 56 320 28 316 306 293 191 181 149 280 215 213 181 188 223 233 143 236 246 250 288 280 259 317 257 273 297 294 287 288 244 232 221 198
103 94 80 69 56 52 78 90 239 98 118 92 282 279 282 220 300 224 202 225 189 115 104 178 195 204 184 216 246 228 224 321 264 271 279 284 280 277 289 291 219 160 157 191
102 95 78 61 47 52 68 66 8 149 123 201 270 310 284 297 291 284 212 183 155 134 112 167 232 234 134 232 263 257 213 246 225 254 255 244 263 288 308 333 285 229 169 49
111 98 78 48 26 54 71 32 326 14 80 89 326 303 305 320 321 289 256 230 191 143 168 221 239 237 165 243 245 254 236 240 238 252 272 272 277 280 264 246 258 283 40 310
104 87 55 39 11 70 94 173 220 83 69 78 332 322 290 309 351 328 305 14 203 149 220 239 220 194 202 234 261 269 254 255 267 251 272 279 262 246 249 211 215 297 348 330
75 44 17 24 78 73 36 344 72 81 78 39 336 276 339 351 312 314 263 300 28 300 219 299 223 293 204 249 254 287 276 266 259 257 252 244 260 242 201 171 214 277 312 317
98 22 86 63 47 53 251 213 70 65 122 140 349 241 261 357 283 258 322 77 356 259 237 244 122 235 230 252 288 287 281 249 248 261 263 251 248 246 258 192 222 262 283 310
60 60 58 22 294 299 45 2 39 15 0 63 234 115 278 89 7 292 2 13 258 274 244 227 203 254 297 286 293 295 288 287 228 237 272 233 224 195 219 221 230 235 260 194
55 72 139 222 331 62 25 27 76 321 342 304 241 198 244 262 210 242 182 257 280 5 270 335 317 294 301 297 308 309 311 274 220 224 246 234 215 185 209 223 233 228 179 141
163 141 101 37 41 49 76 281 332 83 238 265 219 245 207 278 114 89 303 221 28 251 288 307 286 262 300 315 313 316 325 324 261 239 226 232 220 197 184 184 212 213 93 108
45 43 44 55 317 44 114 245 304 302 225 256 267 306 230 334 47 348 40 309 239 324 81 233 244 301 310 306 313 319 326 335 346 77 61 52 109 131 139 154 137 96 98 77
84 106 311 135 320 233 188 184 198 232 202 250 209 258 208 272 4 184 144 248 346 265 318 345 280 291 306 313 312 320 323 328 325 192 130 112 87 76 85 99 115 111 99 61
121 99 220 212 218 222 224 207 348 253 234 176 358 347 75 309 9 184 327 337 267 41 276 253 278 303 311 317 325 319 332 341 356 43 110 115 115 113 93 68 89 97 98 66
87 76 21 226 55 295 287 212 242 239 186 62 58 115 25 279 174 51 229 238 284 257 245 274 317 344 322 327 328 329 350 7 23 33 96 108 115 103 95 72 67 73 78 60
113 261 214 214 309 229 227 193 228 169 96 187 119 69 229 213 278 266 191 258 265 267 293 291 224 314 309 319 334 347 6 14 29 50 63 71 82 85 74 72 32 58 59 48